Home > Weather > Regensdorf > Past weeks

Flag for Switzerland Weather for the Past 2 Weeks in Regensdorf, Zurich, Switzerland

Now
37 °F

Chilly.


Feels Like: 28 °F
Forecast: 29 / 40 °F
Wind: 15 mph from Southwest

Location: Zurich-Kloten

Current Time: Feb 10, 2016 at 9:31:14 PM

Latest Report: Feb 10, 2016 at 8:00 PM


Visibility: N/A

Pressure: 29.74 "Hg

Humidity: 67%

Dew point: 27 °F

Location of RegensdorfLocation

Historic Weather in Regensdorf — Graph

°F

Regensdorf Temperature Yesterday

Maximum temperature yesterday: 47 °F (at 8:00 AM)
Minimum temperature yesterday: 43 °F (at 9:00 PM)
Average temperature yesterday: 46 °F

High & Low Weather Summary for the Past Weeks

 TemperatureHumidityPressure
High57 °F (Feb 1, 12:00 PM)100% (Jan 30, 6:00 AM)30.51 "Hg (Jan 30, 6:00 AM)
Low30 °F (Feb 6, 3:00 AM)52% (Jan 27, 2:00 PM)29.32 "Hg (Feb 9, 6:00 PM)
Average43 °F81%30.15 "Hg
* Reported Jan 26 8:00 PM — Feb 10 8:00 PM, Regensdorf, Weather by CustomWeather, © 2016

Note: Actual official high and low records may vary slightly from our data, if they occured in-between our weather recording intervals... More about our weather records

Advertising

Regensdorf Weather History for the Previous 24 Hours

 ConditionsComfort  
Time TempWeatherWind HumidityBarometerVisibility
8:00 PM
Wed, Feb 10
37 °FChilly.15 mph67%29.74 "HgN/A
7:00 PM37 °FChilly.10 mph66%29.72 "HgN/A
6:00 PM38 °FChilly.12 mph67%29.70 "HgN/A
5:00 PM38 °FChilly.16 mph68%29.67 "HgN/A
4:00 PM39 °FOvercast.12 mph65%29.65 "Hg22 mi
3:00 PM39 °FChilly.14 mph66%29.64 "HgN/A
2:00 PM37 °FChilly.8 mph76%29.65 "HgN/A
1:00 PM37 °FLight snow. Overcast.10 mph76%29.65 "Hg4 mi
12:00 PM37 °FChilly.16 mph73%29.65 "HgN/A
11:00 AM37 °FChilly.16 mph70%29.64 "HgN/A
10:00 AM35 °FPartly sunny.9 mph79%29.63 "Hg19 mi
9:00 AM35 °FChilly.12 mph83%29.62 "HgN/A
8:00 AM34 °FChilly.10 mph87%29.60 "HgN/A
7:00 AM34 °FSnow. Overcast.13 mph90%29.57 "Hg1 mi
6:00 AM34 °FChilly.13 mph89%29.55 "HgN/A
4:00 AM35 °FLight rain. Overcast.15 mph82%29.50 "Hg5 mi
9:00 PM
Tue, Feb 9
43 °FQuite cool.14 mph72%29.41 "HgN/A
Weather by CustomWeather, © 2016

See weather overviewHow to use our weather pages